Location: Val de Santo Domingo
(40.0124°N, 4.3273°W)
Time: 20:52:54
(UTC+00:00)

Cosmos 372 Rocket - Pass Details

Date: 18 July 2025
Orbit: 732 x 763 km, 74.1° (Epoch: 13 April)

Event Time Altitude Azimuth Distance (km) Brightness Sun altitude
Exits shadow 20:45:27 13° 110° (ESE) 2,069 5.6 -10.7°
Drops below altitude 10° 20:49:03 10° 66° (ENE) 2,242 6.2 -11.3°
Enters shadow 21:59:01 -48° 199° (SSW) 10,465 9.7 -20.4°
Maximum altitude 22:27:38 64° 290° (WNW) 814 4.2 -23.4°
